Location: Quaker Farms
(41.4276°N, 73.1557°W)
Time: 01:49:14
(UTC+00:00)

Altair - Pass Details

Date: 22 June 2021
Orbit: 1501 x 1682 km, 47.2° (Epoch: 23 July)

Event Time Altitude Azimuth Distance (km) Brightness Sun altitude
Rises 01:03:44 0° 295° (WNW) 4,850 12.1 -6.0°
Reaches altitude 10° 01:07:17 10° 286° (WNW) 3,885 10.9 -6.5°
Maximum altitude 01:15:34 31° 229° (SW) 2,614 8.8 -7.7°
Drops below altitude 10° 01:23:59 10° 172° (S) 3,934 9.2 -8.9°
Enters shadow 01:26:34 - 165° (SSE) 4,622 9.5 -9.2°
Sets 01:27:39 0° 163° (SSE) 4,919 - -9.4°
